When you browse on this site, cookies collect data to enhance your experience and personalize the content and advertising you see.
Visit our Privacy Policy to learn more. By continuing to use the site, you agree to this use of cookies and data.
  • In Italy
  • List of Countries
  • For 7 days
  • Water Temperature
  • Satellite Maps
  • Weather Map
  • Weather Widgets
  • user-avatar
    Login

    Hourly Weather Beja

    Today, 17 January, Thursday

    Time Temperature Precipitation Wind Pressure Humidity
    00:00 +8°C° 0 mm 1 mps 742 mmHg 92%
    01:00 +7°C° 0 mm 0 mps 742 mmHg 92%
    02:00 +6°C° 0 mm 0 mps 742 mmHg 92%
    03:00 +7°C° 0 mm 1 mps 742 mmHg 93%
    04:00 +8°C° 0 mm 1 mps 742 mmHg 94%
    05:00 +8°C° 0 mm 1 mps 742 mmHg 94%
    06:00 +8°C° 0 mm 1 mps 743 mmHg 94%
    07:00 +8°C° 0 mm 1 mps 743 mmHg 94%
    08:00 +8°C° 0 mm 1 mps 743 mmHg 93%
    09:00 +9°C° 0 mm 2 mps 743 mmHg 87%
    10:00 +10°C° 0 mm 2 mps 743 mmHg 82%
    11:00 +12°C° 0 mm 2 mps 744 mmHg 76%
    12:00 +12°C° 0 mm 2 mps 743 mmHg 73%
    13:00 +13°C° 0 mm 2 mps 743 mmHg 70%
    14:00 +13°C° 0 mm 2 mps 743 mmHg 67%
    15:00 +12°C° 0 mm 2 mps 743 mmHg 71%
    16:00 +10°C° 0 mm 2 mps 743 mmHg 75%
    17:00 +9°C° 0 mm 2 mps 743 mmHg 79%
    18:00 +8°C° 0 mm 2 mps 743 mmHg 82%
    19:00 +7°C° 0 mm 2 mps 744 mmHg 85%
    20:00 +6°C° 0 mm 2 mps 744 mmHg 87%
    21:00 +6°C° 0 mm 2 mps 744 mmHg 88%
    22:00 +5°C° 0 mm 2 mps 744 mmHg 89%
    23:00 +5°C° 0 mm 2 mps 744 mmHg 90%

    Tomorrow, 18 January, Friday

    Time Temperature Precipitation Wind Pressure Humidity
    00:00 +4°C° 0 mm 2 mps 744 mmHg 90%
    01:00 +4°C° 0 mm 2 mps 744 mmHg 90%
    02:00 +4°C° 0 mm 2 mps 744 mmHg 89%
    03:00 +4°C° 0 mm 1 mps 744 mmHg 89%
    04:00 +4°C° 0 mm 1 mps 744 mmHg 89%
    05:00 +4°C° 0 mm 1 mps 744 mmHg 89%
    06:00 +4°C° 0 mm 1 mps 744 mmHg 86%
    07:00 +5°C° 0 mm 1 mps 744 mmHg 83%
    08:00 +5°C° 0 mm 1 mps 745 mmHg 81%
    09:00 +7°C° 0 mm 2 mps 745 mmHg 73%
    10:00 +9°C° 0 mm 2 mps 745 mmHg 65%
    11:00 +12°C° 0 mm 2 mps 745 mmHg 57%
    12:00 +11°C° 0 mm 3 mps 745 mmHg 57%
    13:00 +11°C° 0 mm 3 mps 744 mmHg 57%
    14:00 +11°C° 0 mm 4 mps 744 mmHg 57%
    15:00 +10°C° 0 mm 3 mps 744 mmHg 64%
    16:00 +8°C° 0 mm 3 mps 744 mmHg 71%
    17:00 +7°C° 0 mm 2 mps 744 mmHg 78%
    18:00 +7°C° 0 mm 2 mps 745 mmHg 82%
    19:00 +7°C° 0 mm 2 mps 745 mmHg 86%
    20:00 +6°C° 0 mm 2 mps 745 mmHg 90%
    21:00 +7°C° 0 mm 2 mps 745 mmHg 90%
    22:00 +7°C° 0 mm 2 mps 745 mmHg 89%
    23:00 +8°C° 0 mm 2 mps 744 mmHg 89%

    Day after tomorrow, 19 January, Saturday

    Time Temperature Precipitation Wind Pressure Humidity
    00:00 +8°C° 0.6 mm 2 mps 744 mmHg 91%
    01:00 +9°C° 0.6 mm 2 mps 744 mmHg 94%
    02:00 +9°C° 0.6 mm 2 mps 744 mmHg 96%
    03:00 +9°C° 0.2 mm 3 mps 743 mmHg 96%
    04:00 +10°C° 0.2 mm 3 mps 743 mmHg 97%
    05:00 +11°C° 0.2 mm 3 mps 743 mmHg 97%
    06:00 +11°C° 0.1 mm 3 mps 743 mmHg 97%
    07:00 +11°C° 0.1 mm 3 mps 743 mmHg 96%
    08:00 +11°C° 0.1 mm 3 mps 743 mmHg 95%
    09:00 +12°C° 0.2 mm 4 mps 743 mmHg 92%
    10:00 +13°C° 0.2 mm 5 mps 743 mmHg 88%
    11:00 +14°C° 0.2 mm 7 mps 743 mmHg 84%
    12:00 +14°C° 0.3 mm 7 mps 742 mmHg 84%
    13:00 +14°C° 0.3 mm 7 mps 742 mmHg 85%
    14:00 +13°C° 0.3 mm 8 mps 741 mmHg 85%
    15:00 +12°C° 0.6 mm 7 mps 741 mmHg 88%
    16:00 +12°C° 0.6 mm 7 mps 741 mmHg 91%
    17:00 +11°C° 0.6 mm 6 mps 740 mmHg 94%
    18:00 +12°C° 0.3 mm 5 mps 741 mmHg 95%
    19:00 +12°C° 0.3 mm 4 mps 741 mmHg 96%
    20:00 +12°C° 0.3 mm 3 mps 741 mmHg 96%
    21:00 +11°C° 0.2 mm 3 mps 741 mmHg 96%
    22:00 +11°C° 0.2 mm 3 mps 740 mmHg 97%
    23:00 +10°C° 0.2 mm 3 mps 740 mmHg 97%

    20 January, Sunday

    Time Temperature Precipitation Wind Pressure Humidity
    00:00 +10°C° 0.1 mm 4 mps 740 mmHg 96%
    01:00 +10°C° 0.1 mm 4 mps 740 mmHg 96%
    02:00 +8°C° 0.1 mm 4 mps 740 mmHg 95%
    03:00 +8°C° 0 mm 5 mps 740 mmHg 94%
    04:00 +7°C° 0 mm 5 mps 741 mmHg 93%
    05:00 +7°C° 0 mm 5 mps 741 mmHg 92%
    06:00 +7°C° 0 mm 6 mps 741 mmHg 90%
    07:00 +7°C° 0 mm 6 mps 742 mmHg 89%
    08:00 +7°C° 0 mm 6 mps 742 mmHg 88%
    09:00 +9°C° 0 mm 6 mps 743 mmHg 82%
    10:00 +10°C° 0 mm 6 mps 743 mmHg 76%
    11:00 +13°C° 0 mm 6 mps 744 mmHg 70%
    12:00 +13°C° 0 mm 6 mps 744 mmHg 66%
    13:00 +14°C° 0 mm 6 mps 744 mmHg 61%
    14:00 +14°C° 0 mm 6 mps 743 mmHg 57%
    15:00 +13°C° 0 mm 5 mps 744 mmHg 62%
    16:00 +11°C° 0 mm 4 mps 744 mmHg 66%
    17:00 +10°C° 0 mm 3 mps 744 mmHg 71%
    18:00 +9°C° 0 mm 3 mps 745 mmHg 73%
    19:00 +8°C° 0 mm 3 mps 746 mmHg 75%
    20:00 +7°C° 0 mm 3 mps 746 mmHg 78%
    21:00 +7°C° 0 mm 3 mps 747 mmHg 80%
    22:00 +5°C° 0 mm 3 mps 747 mmHg 82%
    23:00 +4°C° 0 mm 3 mps 747 mmHg 85%

    21 January, Monday

    Time Temperature Precipitation Wind Pressure Humidity
    00:00 +4°C° 0 mm 3 mps 747 mmHg 85%
    01:00 +5°C° 0 mm 2 mps 747 mmHg 86%
    02:00 +5°C° 0 mm 2 mps 747 mmHg 86%
    03:00 +4°C° 0 mm 2 mps 747 mmHg 86%
    04:00 +4°C° 0 mm 2 mps 747 mmHg 86%
    05:00 +4°C° 0 mm 2 mps 748 mmHg 86%
    06:00 +4°C° 0 mm 2 mps 748 mmHg 83%
    07:00 +5°C° 0 mm 2 mps 749 mmHg 80%
    08:00 +5°C° 0 mm 2 mps 749 mmHg 77%
    09:00 +7°C° 0 mm 2 mps 749 mmHg 69%
    10:00 +10°C° 0 mm 2 mps 749 mmHg 61%
    11:00 +13°C° 0 mm 2 mps 749 mmHg 53%
    12:00 +12°C° 0 mm 3 mps 749 mmHg 51%
    13:00 +13°C° 0 mm 3 mps 748 mmHg 50%
    14:00 +14°C° 0 mm 3 mps 748 mmHg 48%
    15:00 +12°C° 0 mm 3 mps 748 mmHg 54%
    16:00 +10°C° 0 mm 3 mps 748 mmHg 61%
    17:00 +8°C° 0 mm 2 mps 748 mmHg 67%
    18:00 +8°C° 0 mm 2 mps 748 mmHg 69%
    19:00 +7°C° 0 mm 2 mps 748 mmHg 72%
    20:00 +6°C° 0 mm 2 mps 749 mmHg 74%
    21:00 +6°C° 0 mm 2 mps 748 mmHg 80%
    22:00 +5°C° 0 mm 2 mps 748 mmHg 86%
    23:00 +4°C° 0 mm 2 mps 748 mmHg 92%

    22 January, Tuesday

    Time Temperature Precipitation Wind Pressure Humidity
    00:00 +4°C° 0 mm 2 mps 748 mmHg 93%
    01:00 +3°C° 0 mm 2 mps 747 mmHg 94%
    02:00 +3°C° 0 mm 2 mps 747 mmHg 96%
    03:00 +3°C° 0 mm 2 mps 747 mmHg 96%
    04:00 +3°C° 0 mm 2 mps 747 mmHg 96%
    05:00 +3°C° 0 mm 2 mps 746 mmHg 96%
    06:00 +4°C° 0 mm 2 mps 746 mmHg 94%
    07:00 +5°C° 0 mm 2 mps 746 mmHg 92%
    08:00 +5°C° 0 mm 3 mps 746 mmHg 89%
    09:00 +7°C° 0 mm 4 mps 746 mmHg 84%
    10:00 +9°C° 0 mm 5 mps 745 mmHg 79%
    11:00 +11°C° 0 mm 6 mps 745 mmHg 74%
    12:00 +10°C° 0.3 mm 6 mps 744 mmHg 79%
    13:00 +9°C° 0.3 mm 7 mps 743 mmHg 83%
    14:00 +9°C° 0.3 mm 7 mps 742 mmHg 87%
    15:00 +8°C° 0 mm 7 mps 743 mmHg 84%
    16:00 +7°C° 0 mm 6 mps 743 mmHg 81%
    17:00 +5°C° 0 mm 6 mps 743 mmHg 77%
    18:00 +4°C° 0 mm 6 mps 743 mmHg 76%
    19:00 +5°C° 0 mm 5 mps 744 mmHg 75%
    20:00 +3°C° 0 mm 5 mps 745 mmHg 74%
    21:00 +3°C° 0 mm 5 mps 745 mmHg 79%
    22:00 +4°C° 0 mm 4 mps 745 mmHg 83%
    23:00 +3°C° 0 mm 4 mps 745 mmHg 88%
    Show more